Location: Michelbach Markt
(48.1000°N, 15.7500°E)
Time: 09:20:15
(UTC+01:00)

Envisat - Visible Passes

Search period start: 29 January 2022 00:00
Search period end: 08 February 2022 00:00
Orbit: 764 x 766 km, 98.2° (Epoch: 28 January)

Date Brightness Start Highest point End Pass type
(mag) Time Alt. Az. Time Alt. Az. Time Alt. Az.
29 Jan 5.7 03:30:37 10° NE 03:33:25 15° E 03:36:12 10° ESE visible
29 Jan 2.8 05:07:58 10° NNE 05:13:05 82° WNW 05:18:10 10° SSW visible
29 Jan 4.6 06:48:43 10° NNW 06:51:19 14° NW 06:53:55 10° W visible
30 Jan 3.8 04:31:12 10° NNE 04:36:09 49° E 04:41:03 10° S visible
30 Jan 3.9 06:10:44 10° N 06:14:54 26° WNW 06:19:04 10° WSW visible
30 Jan 6.1 17:31:35 10° WSW 17:33:55 13° W 17:36:17 10° WNW visible
31 Jan 5.1 03:54:54 10° NE 03:59:00 24° E 04:03:06 10° SE visible
31 Jan 3.1 05:33:23 10° N 05:38:17 50° WNW 05:43:11 10° SW visible
01 Feb 6.0 03:19:58 10° ENE 03:21:39 11° E 03:23:19 10° ESE visible
01 Feb 3.0 04:56:22 10° NNE 05:01:29 81° ESE 05:06:34 10° SSW visible
01 Feb 4.4 06:36:39 10° NNW 06:39:53 17° WNW 06:43:05 10° W visible
02 Feb 4.2 04:19:43 10° NNE 04:24:30 39° E 04:29:14 10° SSE visible
02 Feb 3.7 05:58:57 10° N 06:03:24 32° WNW 06:07:51 10° SW visible
03 Feb 5.4 03:43:38 10° NE 03:47:17 20° E 03:50:55 10° SE visible
03 Feb 2.9 05:21:42 10° N 05:26:44 62° WNW 05:31:44 10° SSW visible
04 Feb 3.3 04:44:47 10° NNE 04:49:52 65° ESE 04:54:55 10° S visible
04 Feb 4.2 06:24:43 10° NNW 06:28:25 21° WNW 06:32:06 10° WSW visible
05 Feb 4.6 04:08:16 10° NNE 04:12:49 32° E 04:17:19 10° SSE visible
05 Feb 3.4 05:47:11 10° N 05:51:53 38° WNW 05:56:33 10° SW visible
06 Feb 5.7 03:32:31 10° NE 03:35:33 16° E 03:38:32 10° SE visible
06 Feb 2.8 05:10:03 10° N 05:15:10 77° WNW 05:20:14 10° SSW visible
07 Feb 3.7 04:33:14 10° NNE 04:38:14 52° E 04:43:11 10° S visible
07 Feb 4.0 06:12:51 10° N 06:16:57 25° WNW 06:21:00 10° WSW visible
07 Feb 6.2 17:34:02 10° WSW 17:36:03 12° W 17:38:04 10° WNW visible
